Location: Asheville, NC
(35.6000°N, 82.5500°W)
Time: 10:54:43

Hubble Space Telescope - Pass Details

Date: 10 December 2017
Orbit: 537 x 541 km, 28.5° (Epoch: 23 March)

Event Time Altitude Azimuth Distance (km) Brightness Sun altitude
Rises 19:21:32 0° 250° (WSW) 2,675 5.7 -24.5°
Reaches altitude 10° 19:23:59 10° 239° (WSW) 1,785 4.3 -25.0°
Enters shadow 19:27:08 29° 191° (SSW) 997 2.3 -25.7°
